GSAT0204 (GALILEO 8)

Last updated on Thu Nov 21 2024 00:02:30 GMT+0000 (Coordinated Universal Time)

1 40545U 15017B 24324.61512350 -.00000095 00000+0 00000+0 0 9993 2 40545 56.9219 357.2592 0005774 249.6475 110.3411 1.70475617 22457
UTC large
Height (km)
Speed (km/s)
/
Latitude / Longitude
Inclination (degrees)
Orbital Period (minutes)
Azimuth
Elevation
Range (km)
Doppler Factor

Next 0 passes for location: London (51.5072 / 0.1276)

Sorry there are no passes over London.